Flag for Netherlands Weather past 2 weeks in 's-Hertogenbosch, Netherlands

Now
57 °F

Light rain. Mostly cloudy.


Feels Like: 57 °F
Forecast: 54 / 62 °F
Wind: 1 mph from North

Location: Volkel

Current Time: Sep 20, 2014 at 7:58:06 AM

Latest Report: Sep 20, 2014 at 7:25 AM


Visibility: 1 mi

Pressure: 29.92 "Hg

Humidity: 100%

Dew point: 57 °F

Location of 's-HertogenboschLocation

Historic Weather in 's-Hertogenbosch — Graph

°F

's-Hertogenbosch temperature yesterday

Maximum temperature yesterday: 73 °F (at 3:55 PM)
Minimum temperature yesterday: 61 °F (at 1:25 AM)
Average temperature yesterday: 65 °F

Past Weeks' High & Low Weather Summary

 TemperatureHumidityPressure
High77 °F (Sep 17, 3:25 PM)100% (Sep 5, 7:25 AM)30.27 "Hg (Sep 5, 7:25 AM)
Low46 °F (Sep 12, 5:55 AM)46% (Sep 8, 4:55 PM)29.80 "Hg (Sep 18, 3:55 PM)
Average62 °F86%30.02 "Hg
* Reported Sep 5 6:25 AM — Sep 20 6:25 AM, 's-Hertogenbosch, Weather by CustomWeather, © 2014

Note: Actual official high and low records may vary slightly from our data, if they occured in-between our weather recording intervals... More about our weather records

Advertising

's-Hertogenbosch weather history for previous 24 hours

 ConditionsComfort  
Time TempWeatherWind HumidityBarometerVisibility
6:25 AM
Sep 20
57 °FThunderstorms. Fog.5 mph100%29.92 "Hg0 mi
5:55 AM57 °FThunderstorms. Fog.2 mph100%29.92 "Hg0 mi
5:25 AM57 °FThunderstorms. Fog.1 mph94%29.89 "Hg0 mi
4:55 AM57 °FFog.1 mph100%29.89 "Hg0 mi
4:25 AM57 °FFog.1 mph100%29.92 "Hg0 mi
3:55 AM57 °FFog.No wind100%29.92 "Hg0 mi
2:55 AM59 °FFog.2 mph100%29.89 "Hg0 mi
1:55 AM57 °FFog.2 mph100%29.92 "Hg0 mi
1:25 AM59 °FFog.1 mph100%29.89 "Hg1 mi
12:59 AM59 °FFog.1 mph100%29.92 "Hg1 mi
12:55 AM59 °FFog.No wind100%29.92 "Hg1 mi
12:25 AM61 °FFog.1 mph100%29.92 "Hg1 mi
12:03 AM59 °FFog.2 mph100%29.92 "Hg1 mi
11:55 PM
Sep 19
61 °FFog.1 mph100%29.92 "Hg1 mi
11:25 PM61 °FFog.No wind100%29.92 "Hg0 mi
11:01 PM61 °FFog.1 mph100%29.92 "Hg1 mi
10:55 PM63 °FFog.1 mph94%29.92 "Hg1 mi
10:25 PM63 °FFog.1 mph100%29.92 "Hg1 mi
10:03 PM63 °FFog.2 mph100%29.89 "Hg1 mi
9:55 PM63 °FFog.1 mph100%29.89 "Hg1 mi
9:25 PM63 °FFog.No wind100%29.89 "Hg2 mi
8:55 PM63 °FFog.1 mph100%29.89 "Hg1 mi
8:25 PM64 °FFog.No wind100%29.89 "Hg2 mi
7:55 PM66 °FFog.1 mph94%29.86 "Hg2 mi
7:25 PM66 °FFog.3 mph94%29.86 "Hg2 mi
6:55 PM70 °FFog.No wind83%29.86 "Hg3 mi
6:25 PM72 °FHaze.2 mph78%29.86 "Hg3 mi
5:55 PM73 °FHaze.1 mph74%29.86 "Hg3 mi
5:25 PM72 °FHaze.3 mph78%29.86 "Hg3 mi
5:00 PM72 °FScattered clouds.6 mph78%29.86 "Hg3 mi
4:55 PM72 °FScattered clouds.6 mph78%29.86 "Hg3 mi
4:25 PM72 °FCloudy.6 mph83%29.86 "Hg3 mi
3:55 PM73 °FBroken clouds.5 mph74%29.86 "Hg3 mi
3:25 PM72 °FFog.3 mph78%29.86 "Hg3 mi
2:59 PM72 °FFog.1 mph78%29.86 "Hg3 mi
2:25 PM70 °FFog.3 mph83%29.86 "Hg3 mi
1:55 PM68 °FFog.1 mph88%29.86 "Hg3 mi
1:25 PM68 °FFog.1 mph88%29.86 "Hg2 mi
12:56 PM66 °FFog.2 mph94%29.86 "Hg2 mi
12:25 PM64 °FFog.2 mph94%29.86 "Hg2 mi
11:55 AM64 °FFog.2 mph94%29.86 "Hg2 mi
11:25 AM64 °FFog.2 mph94%29.86 "Hg1 mi
10:55 AM64 °FFog.2 mph94%29.86 "Hg1 mi
10:25 AM64 °FFog.2 mph94%29.86 "Hg1 mi
9:55 AM63 °FFog.3 mph100%29.86 "Hg1 mi
9:25 AM63 °FFog.2 mph100%29.86 "Hg1 mi
9:04 AM63 °FFog.1 mph100%29.86 "Hg1 mi
8:55 AM63 °FFog.1 mph100%29.83 "Hg1 mi
8:25 AM63 °FFog.2 mph100%29.83 "Hg1 mi
7:58 AM63 °FFog.2 mph100%29.83 "Hg1 mi
7:55 AM63 °FFog.1 mph100%29.83 "Hg1 mi
7:25 AM63 °FFog.2 mph100%29.83 "Hg1 mi
Weather by CustomWeather, © 2014

See weather overviewHow to use our weather pages